| time (UTC) | temp F | wind direction | speed knots | gust knots | rain 1hr in | rain 24hr in | rain mn in | humidity % | barometer mb |
| 20260507221723 | 90 | 284 | 5.2 | 7.8 | 0.00 | 0.00 | 0.00 | 100 | 1009.4 |
| 20260507221222 | 89 | 320 | 1.7 | 8.7 | 0.00 | 0.00 | 0.00 | 100 | 1009.4 |
| 20260507220721 | 89 | 225 | 5.2 | 10.4 | 0.00 | 0.00 | 0.00 | 100 | 1009.4 |
| 20260507220221 | 89 | 135 | 7.8 | 10.4 | 0.00 | 0.00 | 0.00 | 100 | 1009.4 |
| 20260507215721 | 88 | 198 | 7.0 | 13.0 | 0.00 | 0.00 | 0.00 | 100 | 1009.4 |
| 20260507215220 | 88 | 205 | 8.7 | 13.0 | 0.00 | 0.00 | 0.00 | 100 | 1009.4 |
| 20260507214719 | 88 | 198 | 8.7 | 11.3 | 0.00 | 0.00 | 0.00 | 100 | 1009.4 |
| 20260507214219 | 88 | 181 | 7.8 | 11.3 | 0.00 | 0.00 | 0.00 | 100 | 1009.4 |
| 20260507213718 | 88 | 201 | 8.7 | 11.3 | 0.00 | 0.00 | 0.00 | 100 | 1009.4 |
| 20260507213217 | 89 | 188 | 5.2 | 9.6 | 0.00 | 0.00 | 0.00 | 100 | 1009.4 |
| 20260507212717 | 90 | 320 | 4.3 | 10.4 | 0.00 | 0.00 | 0.00 | 100 | 1009.4 |
| 20260507212436 | 87 | 320 | 5.2 | 11.3 | 0.00 | 0.00 | 0.00 | 100 | 1009.4 |
| 20260507211716 | 88 | 278 | 7.8 | 11.3 | 0.00 | 0.00 | 0.00 | 100 | 1009.4 |
| 20260507211215 | 88 | 260 | 4.3 | 10.4 | 0.00 | 0.00 | 0.00 | 100 | 1009.4 |
| 20260507210714 | 87 | 127 | 4.3 | 13.0 | 0.00 | 0.00 | 0.00 | 100 | 1009.4 |
| 20260507210213 | 87 | 239 | 7.8 | 13.0 | 0.00 | 0.00 | 0.00 | 100 | 1009.4 |
| 20260507205713 | 86 | 358 | 5.2 | 11.3 | 0.00 | 0.00 | 0.00 | 100 | 1009.4 |
| 20260507205213 | 87 | 257 | 7.8 | 13.9 | 0.00 | 0.00 | 0.00 | 100 | 1009.4 |
| 20260507204712 | 88 | 182 | 10.4 | 13.9 | 0.00 | 0.00 | 0.00 | 100 | 1009.4 |
| 20260507204211 | 90 | 243 | 6.1 | 13.0 | 0.00 | 0.00 | 0.00 | 100 | 1009.4 |
| 20260507203711 | 89 | 260 | 4.3 | 12.2 | 0.00 | 0.00 | 0.00 | 100 | 1009.4 |
| 20260507203210 | 88 | 253 | 0.9 | 12.2 | 0.00 | 0.00 | 0.00 | 100 | 1009.4 |
| 20260507202705 | 88 | 255 | 7.0 | 11.3 | 0.00 | 0.00 | 0.00 | 100 | 1009.4 |
| 20260507202422 | 89 | 255 | 5.2 | 11.3 | 0.00 | 0.00 | 0.00 | 100 | 1009.4 |
| 20260507201704 | 89 | 281 | 5.2 | 12.2 | 0.00 | 0.00 | 0.00 | 100 | 1009.4 |
| 20260507201204 | 87 | 184 | 7.8 | 16.5 | 0.00 | 0.00 | 0.00 | 100 | 1009.4 |
| 20260507200703 | 87 | 180 | 8.7 | 16.5 | 0.00 | 0.00 | 0.00 | 100 | 1009.4 |
| 20260507200202 | 87 | 223 | 7.0 | 16.5 | 0.00 | 0.00 | 0.00 | 100 | 1009.4 |
| 20260507195702 | 88 | 246 | 6.1 | 13.0 | 0.00 | 0.00 | 0.00 | 100 | 1009.4 |
| 20260507195201 | 86 | 244 | 7.0 | 13.0 | 0.00 | 0.00 | 0.00 | 100 | 1009.4 |
| 20260507194700 | 87 | 255 | 7.8 | 13.9 | 0.00 | 0.00 | 0.00 | 100 | 1009.4 |
| 20260507194200 | 87 | 212 | 9.6 | 13.9 | 0.00 | 0.00 | 0.00 | 100 | 1009.4 |
| 20260507193659 | 86 | 213 | 9.6 | 13.0 | 0.00 | 0.00 | 0.00 | 100 | 1009.4 |
| 20260507193158 | 88 | 195 | 3.5 | 13.0 | 0.00 | 0.00 | 0.00 | 100 | 1009.4 |
| 20260507192658 | 89 | 241 | 7.0 | 13.0 | 0.00 | 0.00 | 0.00 | 100 | 1009.4 |
| 20260507192157 | 90 | 246 | 5.2 | 12.2 | 0.00 | 0.00 | 0.00 | 100 | 1009.4 |
| 20260507191913 | 90 | 299 | 1.7 | 12.2 | 0.00 | 0.00 | 0.00 | 100 | 1009.4 |
| 20260507191156 | 90 | 288 | 5.2 | 12.2 | 0.00 | 0.00 | 0.00 | 100 | 1009.4 |
| 20260507190656 | 89 | 174 | 9.6 | 12.2 | 0.00 | 0.00 | 0.00 | 100 | 1009.4 |
| 20260507190413 | 89 | 244 | 5.2 | 11.3 | 0.00 | 0.00 | 0.00 | 100 | 1009.4 |
| 20260507185654 | 89 | 241 | 7.0 | 12.2 | 0.00 | 0.00 | 0.00 | 100 | 1009.4 |
| 20260507185154 | 88 | 352 | 5.2 | 12.2 | 0.00 | 0.00 | 0.00 | 100 | 1009.4 |
| 20260507184653 | 88 | 258 | 7.8 | 13.9 | 0.00 | 0.00 | 0.00 | 100 | 1009.4 |
| 20260507184420 | 87 | 226 | 7.0 | 13.9 | 0.00 | 0.00 | 0.00 | 100 | 1009.4 |
| 20260507183152 | 90 | 247 | 5.2 | 10.4 | 0.00 | 0.00 | 0.00 | 100 | 1009.4 |
| 20260507182651 | 89 | 198 | 5.2 | 11.3 | 0.00 | 0.00 | 0.00 | 100 | 1009.4 |
| 20260507182150 | 88 | 198 | 6.1 | 11.3 | 0.00 | 0.00 | 0.00 | 100 | 1009.4 |
| 20260507181650 | 89 | 150 | 6.1 | 11.3 | 0.00 | 0.00 | 0.00 | 100 | 1009.4 |
| 20260507181149 | 88 | 226 | 4.3 | 11.3 | 0.00 | 0.00 | 0.00 | 100 | 1009.4 |
| 20260507180648 | 88 | 233 | 6.1 | 11.3 | 0.00 | 0.00 | 0.00 | 100 | 1009.4 |
| 20260507180148 | 87 | 253 | 8.7 | 11.3 | 0.00 | 0.00 | 0.00 | 100 | 1009.4 |
| 20260507175647 | 89 | 236 | 7.0 | 9.6 | 0.00 | 0.00 | 0.00 | 100 | 1009.4 |
| 20260507175412 | 89 | 206 | 6.1 | 8.7 | 0.00 | 0.00 | 0.00 | 100 | 1009.4 |
| 20260507174915 | 88 | 229 | 3.5 | 8.7 | 0.00 | 0.00 | 0.00 | 100 | 1009.4 |
| 20260507174139 | 88 | 203 | 5.2 | 7.8 | 0.00 | 0.00 | 0.00 | 100 | 1009.4 |
| 20260507173638 | 87 | 177 | 5.2 | 7.8 | 0.00 | 0.00 | 0.00 | 100 | 1009.4 |
| 20260507173138 | 88 | 233 | 3.5 | 7.8 | 0.00 | 0.00 | 0.00 | 100 | 1009.4 |
| 20260507172637 | 87 | 227 | 3.5 | 7.8 | 0.00 | 0.00 | 0.00 | 100 | 1009.4 |
| 20260507172137 | 87 | 210 | 1.7 | 7.8 | 0.00 | 0.00 | 0.00 | 100 | 1009.4 |
| 20260507171636 | 87 | 239 | 1.7 | 8.7 | 0.00 | 0.00 | 0.00 | 100 | 1009.4 |
| 20260507170617 | 85 | 303 | 2.6 | 9.6 | 0.00 | 0.00 | 0.00 | 100 | 1009.4 |
| 20260507170116 | 85 | 254 | 4.3 | 8.7 | 0.00 | 0.00 | 0.00 | 100 | 1009.4 |
| 20260507165837 | 87 | 226 | 6.1 | 8.7 | 0.00 | 0.00 | 0.00 | 100 | 1009.4 |
| 20260507165115 | 86 | 250 | 5.2 | 8.7 | 0.00 | 0.00 | 0.00 | 100 | 1009.4 |
| 20260507164614 | 85 | 234 | 6.1 | 7.8 | 0.00 | 0.00 | 0.00 | 100 | 1009.4 |
| 20260507164114 | 85 | 265 | 3.5 | 6.1 | 0.00 | 0.00 | 0.00 | 100 | 1009.4 |
| 20260507163613 | 85 | 171 | 3.5 | 5.2 | 0.00 | 0.00 | 0.00 | 100 | 1009.4 |
| 20260507163113 | 84 | 220 | 1.7 | 7.8 | 0.00 | 0.00 | 0.00 | 100 | 1009.4 |
| 20260507162612 | 83 | 292 | 3.5 | 7.8 | 0.00 | 0.00 | 0.00 | 100 | 1009.4 |
| 20260507162111 | 84 | 7 | 5.2 | 7.0 | 0.00 | 0.00 | 0.00 | 100 | 1009.4 |
| 20260507161610 | 84 | 46 | 2.6 | 5.2 | 0.00 | 0.00 | 0.00 | 100 | 1009.4 |
| 20260507161109 | 83 | 317 | 2.6 | 5.2 | 0.00 | 0.00 | 0.00 | 100 | 1009.4 |
| 20260507160832 | 82 | 278 | 1.7 | 5.2 | 0.00 | 0.00 | 0.00 | 100 | 1009.4 |
| 20260507160109 | 82 | 255 | 3.5 | 5.2 | 0.00 | 0.00 | 0.00 | 100 | 1009.4 |
| 20260507155107 | 81 | 329 | 0.0 | 3.5 | 0.00 | 0.00 | 0.00 | 100 | 1009.4 |
| 20260507154545 | 80 | 298 | 0.0 | 4.3 | 0.00 | 0.00 | 0.00 | 100 | 1009.4 |
| 20260507154040 | 80 | 254 | 1.7 | 5.2 | 0.00 | 0.00 | 0.00 | 100 | 1009.4 |
| 20260507153540 | 79 | 230 | 0.0 | 5.2 | 0.00 | 0.00 | 0.00 | 100 | 1009.4 |
| 20260507153038 | 79 | 232 | 3.5 | 4.3 | 0.00 | 0.00 | 0.00 | 100 | 1009.4 |
| 20260507152756 | 79 | 239 | 1.7 | 4.3 | 0.00 | 0.00 | 0.00 | 100 | 1009.4 |
| 20260507151537 | 77 | 236 | 0.9 | 4.3 | 0.00 | 0.00 | 0.00 | 100 | 1009.4 |
| 20260507151034 | 77 | 277 | 2.6 | 4.3 | 0.00 | 0.00 | 0.00 | 100 | 1009.4 |
| 20260507150534 | 77 | 246 | 1.7 | 3.5 | 0.00 | 0.00 | 0.00 | 100 | 1009.4 |
| 20260507150033 | 77 | 233 | 0.0 | 4.3 | 0.00 | 0.00 | 0.00 | 100 | 1009.4 |
| 20260507145532 | 76 | 261 | 2.6 | 4.3 | 0.00 | 0.00 | 0.00 | 100 | 1009.4 |
| 20260507145032 | 76 | 251 | 2.6 | 4.3 | 0.00 | 0.00 | 0.00 | 100 | 1009.4 |
| 20260507144031 | 76 | 227 | 0.0 | 2.6 | 0.00 | 0.00 | 0.00 | 100 | 1009.4 |
| 20260507143530 | 75 | 19 | 0.0 | 0.0 | 0.00 | 0.00 | 0.00 | 100 | 1009.4 |
| 20260507143241 | 75 | 19 | 0.0 | 0.0 | 0.00 | 0.00 | 0.00 | 100 | 1009.4 |
| 20260507142508 | 74 | 19 | 0.0 | 0.0 | 0.00 | 0.00 | 0.00 | 100 | 1009.4 |
| 20260507141957 | 73 | 19 | 0.0 | 0.0 | 0.00 | 0.00 | 0.00 | 100 | 1009.4 |
| 20260507141431 | 71 | 19 | 0.0 | 0.0 | 0.00 | 0.00 | 0.00 | 100 | 1009.4 |
| 20260507140923 | 71 | 19 | 0.0 | 0.0 | 0.00 | 0.00 | 0.00 | 100 | 1009.4 |
| 20260507140424 | 69 | 19 | 0.0 | 0.0 | 0.00 | 0.00 | 0.00 | 100 | 1009.4 |
| 20260507135912 | 68 | 19 | 0.0 | 0.0 | 0.00 | 0.00 | 0.00 | 100 | 1009.4 |
| 20260507135406 | 67 | 19 | 0.0 | 0.0 | 0.00 | 0.00 | 0.00 | 100 | 1009.4 |
| 20260507134849 | 66 | 19 | 0.0 | 0.0 | 0.00 | 0.00 | 0.00 | 100 | 1009.4 |
| 20260507134344 | 65 | 19 | 0.0 | 0.0 | 0.00 | 0.00 | 0.00 | 100 | 1009.4 |
| 20260507133839 | 65 | 19 | 0.0 | 0.0 | 0.00 | 0.00 | 0.00 | 100 | 1009.4 |
| 20260507133330 | 64 | 19 | 0.0 | 0.0 | 0.00 | 0.00 | 0.00 | 100 | 1009.4 |
| 20260507132817 | 63 | 19 | 0.0 | 0.0 | 0.00 | 0.00 | 0.00 | 100 | 1009.4 |
| 20260507132307 | 62 | 19 | 0.0 | 0.0 | 0.00 | 0.00 | 0.00 | 100 | 1009.4 |
| 20260507131756 | 60 | 19 | 0.0 | 0.0 | 0.00 | 0.00 | 0.00 | 100 | 1009.4 |
| 20260507131248 | 60 | 19 | 0.0 | 2.6 | 0.00 | 0.00 | 0.00 | 100 | 1009.4 |
| 20260507130733 | 60 | 19 | 0.0 | 5.2 | 0.00 | 0.00 | 0.00 | 100 | 1009.4 |
| 20260507130452 | 60 | 358 | 3.5 | 5.2 | 0.00 | 0.00 | 0.00 | 100 | 1009.4 |
| 20260507125725 | 58 | 358 | 1.7 | 5.2 | 0.00 | 0.00 | 0.00 | 100 | 1009.4 |
| 20260507125219 | 58 | 354 | 2.6 | 5.2 | 0.00 | 0.00 | 0.00 | 100 | 1009.4 |
| 20260507124718 | 58 | 333 | 3.5 | 7.0 | 0.00 | 0.00 | 0.00 | 100 | 1009.4 |
| 20260507124218 | 58 | 343 | 2.6 | 7.0 | 0.00 | 0.00 | 0.00 | 100 | 1009.4 |
| 20260507123717 | 57 | 358 | 3.5 | 6.1 | 0.00 | 0.00 | 0.00 | 100 | 1009.4 |
| 20260507123217 | 57 | 310 | 2.6 | 4.3 | 0.00 | 0.00 | 0.00 | 100 | 1009.4 |
| 20260507122716 | 57 | 358 | 0.0 | 1.7 | 0.00 | 0.00 | 0.00 | 100 | 1009.4 |
| 20260507122213 | 57 | 358 | 0.0 | 3.5 | 0.00 | 0.00 | 0.00 | 100 | 1009.4 |
| 20260507121710 | 57 | 358 | 1.7 | 6.1 | 0.00 | 0.00 | 0.00 | 100 | 1009.4 |
| 20260507121208 | 58 | 358 | 3.5 | 6.1 | 0.00 | 0.00 | 0.00 | 100 | 1009.4 |
| 20260507120707 | 58 | 324 | 5.2 | 6.1 | 0.00 | 0.00 | 0.00 | 100 | 1009.4 |
| 20260507120207 | 59 | 330 | 4.3 | 7.0 | 0.00 | 0.00 | 0.00 | 100 | 1009.4 |
| 20260507115928 | 59 | 1 | 4.3 | 7.0 | 0.00 | 0.00 | 0.00 | 100 | 1009.4 |
| 20260507115205 | 58 | 7 | 6.1 | 7.0 | 0.00 | 0.00 | 0.00 | 100 | 1009.4 |
| 20260507114704 | 57 | 338 | 3.5 | 6.1 | 0.00 | 0.00 | 0.00 | 100 | 1009.4 |
| 20260507114204 | 57 | 326 | 5.2 | 5.2 | 0.00 | 0.00 | 0.00 | 100 | 1009.4 |
| 20260507113704 | 58 | 330 | 0.9 | 4.3 | 0.00 | 0.00 | 0.00 | 100 | 1009.4 |
| 20260507113424 | 58 | 358 | 0.9 | 4.3 | 0.00 | 0.00 | 0.00 | 100 | 1009.4 |
| 20260507112654 | 57 | 338 | 0.0 | 4.3 | 0.00 | 0.00 | 0.00 | 100 | 1009.4 |
| 20260507112151 | 58 | 7 | 3.5 | 4.3 | 0.00 | 0.00 | 0.00 | 100 | 1009.4 |
| 20260507111648 | 57 | 358 | 2.6 | 3.5 | 0.00 | 0.00 | 0.00 | 100 | 1009.4 |
| 20260507111148 | 58 | 355 | 0.0 | 6.1 | 0.00 | 0.00 | 0.00 | 100 | 1009.4 |
| 20260507110906 | 58 | 355 | 0.0 | 6.1 | 0.00 | 0.00 | 0.00 | 100 | 1009.4 |
| 20260507110139 | 58 | 358 | 4.3 | 6.1 | 0.00 | 0.00 | 0.00 | 100 | 1009.4 |
| 20260507105634 | 58 | 358 | 1.7 | 3.5 | 0.00 | 0.00 | 0.00 | 100 | 1009.4 |
| 20260507105133 | 58 | 358 | 0.0 | 0.0 | 0.00 | 0.00 | 0.00 | 100 | 1009.4 |
| 20260507104110 | 58 | 358 | 0.0 | 3.5 | 0.00 | 0.00 | 0.00 | 100 | 1009.4 |
| 20260507103558 | 57 | 358 | 0.0 | 3.5 | 0.00 | 0.00 | 0.00 | 100 | 1009.4 |
| 20260507103057 | 58 | 358 | 0.0 | 3.5 | 0.00 | 0.00 | 0.00 | 100 | 1009.4 |
| 20260507102541 | 58 | 358 | 0.0 | 3.5 | 0.00 | 0.00 | 0.00 | 100 | 1009.4 |
| 20260507102301 | 58 | 358 | 0.0 | 3.5 | 0.00 | 0.00 | 0.00 | 100 | 1009.4 |
| 20260507101526 | 58 | 333 | 0.0 | 5.2 | 0.00 | 0.00 | 0.00 | 100 | 1009.4 |
| 20260507101002 | 58 | 358 | 0.9 | 5.2 | 0.00 | 0.00 | 0.00 | 100 | 1009.4 |
| 20260507100458 | 58 | 338 | 1.7 | 5.2 | 0.00 | 0.00 | 0.00 | 100 | 1009.4 |
| 20260507095958 | 59 | 358 | 4.3 | 5.2 | 0.00 | 0.00 | 0.00 | 100 | 1009.4 |
| 20260507095457 | 59 | 358 | 0.0 | 0.0 | 0.00 | 0.00 | 0.00 | 100 | 1009.4 |
| 20260507094947 | 58 | 358 | 0.0 | 0.0 | 0.00 | 0.00 | 0.00 | 100 | 1009.4 |
| 20260507094420 | 58 | 358 | 0.0 | 0.9 | 0.00 | 0.00 | 0.00 | 100 | 1009.4 |
| 20260507094133 | 58 | 358 | 0.0 | 4.3 | 0.00 | 0.00 | 0.00 | 100 | 1009.4 |
| 20260507093410 | 59 | 358 | 0.0 | 4.3 | 0.00 | 0.00 | 0.00 | 100 | 1009.4 |
| 20260507092851 | 59 | 358 | 1.7 | 4.3 | 0.00 | 0.00 | 0.00 | 100 | 1009.4 |
| 20260507092350 | 59 | 358 | 0.9 | 3.5 | 0.00 | 0.00 | 0.00 | 100 | 1009.4 |
| 20260507092103 | 58 | 358 | 0.0 | 3.5 | 0.00 | 0.00 | 0.00 | 100 | 1009.4 |
| 20260507091331 | 58 | 331 | 0.0 | 3.5 | 0.00 | 0.00 | 0.00 | 100 | 1009.4 |
| 20260507090828 | 57 | 4 | 0.0 | 0.0 | 0.00 | 0.00 | 0.00 | 100 | 1009.4 |
| 20260507090319 | 58 | 4 | 0.0 | 0.0 | 0.00 | 0.00 | 0.00 | 100 | 1009.4 |
| 20260507085804 | 59 | 4 | 0.0 | 0.0 | 0.00 | 0.00 | 0.00 | 100 | 1009.4 |
| 20260507085256 | 59 | 4 | 0.0 | 0.0 | 0.00 | 0.00 | 0.00 | 100 | 1009.4 |
| 20260507084746 | 59 | 4 | 0.0 | 0.0 | 0.00 | 0.00 | 0.00 | 100 | 1009.4 |
| 20260507084245 | 59 | 4 | 0.0 | 0.0 | 0.00 | 0.00 | 0.00 | 100 | 1009.4 |
| 20260507083721 | 59 | 4 | 0.0 | 0.0 | 0.00 | 0.00 | 0.00 | 100 | 1009.4 |
| 20260507083211 | 60 | 4 | 0.0 | 0.0 | 0.00 | 0.00 | 0.00 | 100 | 1009.4 |
| 20260507082700 | 61 | 4 | 0.0 | 0.0 | 0.00 | 0.00 | 0.00 | 100 | 1009.4 |
| 20260507082148 | 61 | 4 | 0.0 | 2.6 | 0.00 | 0.00 | 0.00 | 100 | 1009.4 |
| 20260507081620 | 61 | 4 | 0.0 | 2.6 | 0.00 | 0.00 | 0.00 | 100 | 1009.4 |
| 20260507081111 | 61 | 4 | 0.0 | 5.2 | 0.00 | 0.00 | 0.00 | 100 | 1009.4 |
| 20260507080611 | 61 | 315 | 0.0 | 8.7 | 0.00 | 0.00 | 0.00 | 100 | 1009.4 |
| 20260507080046 | 62 | 315 | 0.9 | 9.6 | 0.00 | 0.00 | 0.00 | 100 | 1009.4 |
| 20260507075533 | 64 | 0 | 5.2 | 9.6 | 0.00 | 0.00 | 0.00 | 100 | 1009.4 |
| 20260507074532 | 60 | 54 | 0.9 | 4.3 | 0.00 | 0.00 | 0.00 | 100 | 1009.4 |
| 20260507074031 | 59 | 46 | 0.0 | 0.9 | 0.00 | 0.00 | 0.00 | 100 | 1009.4 |
| 20260507073520 | 58 | 46 | 0.0 | 0.9 | 0.00 | 0.00 | 0.00 | 100 | 1009.4 |
| 20260507073240 | 58 | 46 | 0.0 | 0.0 | 0.00 | 0.00 | 0.00 | 100 | 1009.4 |
| 20260507072457 | 59 | 46 | 0.0 | 0.0 | 0.00 | 0.00 | 0.00 | 100 | 1009.4 |
| 20260507072152 | 59 | 46 | 0.0 | 0.0 | 0.00 | 0.00 | 0.00 | 100 | 1009.4 |
| 20260507071645 | 58 | 46 | 0.0 | 0.0 | 0.00 | 0.00 | 0.00 | 100 | 1009.4 |
| 20260507070412 | 59 | 46 | 0.0 | 1.7 | 0.00 | 0.00 | 0.00 | 100 | 1009.4 |
| 20260507065859 | 59 | 46 | 0.0 | 1.7 | 0.00 | 0.00 | 0.00 | 100 | 1009.4 |
| 20260507065611 | 59 | 46 | 0.0 | 3.5 | 0.00 | 0.00 | 0.00 | 100 | 1009.4 |
| 20260507064821 | 58 | 46 | 0.0 | 3.5 | 0.00 | 0.00 | 0.00 | 100 | 1009.4 |
| 20260507064310 | 58 | 254 | 0.0 | 0.9 | 0.00 | 0.00 | 0.00 | 100 | 1009.4 |
| 20260507063804 | 59 | 120 | 0.0 | 0.0 | 0.00 | 0.00 | 0.00 | 100 | 1009.4 |
| 20260507063522 | 59 | 120 | 0.0 | 0.0 | 0.00 | 0.00 | 0.00 | 100 | 1009.4 |
| 20260507062758 | 59 | 120 | 0.0 | 0.0 | 0.00 | 0.00 | 0.00 | 100 | 1009.4 |
| 20260507062255 | 59 | 120 | 0.0 | 0.0 | 0.00 | 0.00 | 0.00 | 100 | 1009.4 |
| 20260507061755 | 59 | 120 | 0.0 | 0.0 | 0.00 | 0.00 | 0.00 | 100 | 1009.4 |
| 20260507061248 | 59 | 120 | 0.0 | 0.0 | 0.00 | 0.00 | 0.00 | 100 | 1009.4 |
| 20260507060735 | 59 | 120 | 0.0 | 0.0 | 0.00 | 0.00 | 0.00 | 100 | 1009.4 |
| 20260507060444 | 60 | 120 | 0.0 | 0.0 | 0.00 | 0.00 | 0.00 | 100 | 1009.4 |
| 20260507055714 | 60 | 120 | 0.0 | 0.0 | 0.00 | 0.00 | 0.00 | 100 | 1009.4 |
| 20260507055211 | 61 | 120 | 0.0 | 0.0 | 0.00 | 0.00 | 0.00 | 100 | 1009.4 |
| 20260507054706 | 62 | 120 | 0.0 | 0.0 | 0.00 | 0.00 | 0.00 | 100 | 1009.4 |
| 20260507054202 | 62 | 120 | 0.0 | 0.0 | 0.00 | 0.00 | 0.00 | 100 | 1009.4 |
| 20260507053643 | 62 | 120 | 0.0 | 0.0 | 0.00 | 0.00 | 0.00 | 100 | 1009.4 |
| 20260507053400 | 63 | 120 | 0.0 | 1.7 | 0.00 | 0.00 | 0.00 | 100 | 1009.4 |
| 20260507052635 | 63 | 120 | 0.0 | 1.7 | 0.00 | 0.00 | 0.00 | 100 | 1009.4 |
| 20260507052135 | 63 | 120 | 0.0 | 1.7 | 0.00 | 0.00 | 0.00 | 100 | 1009.4 |
| 20260507051628 | 64 | 257 | 0.0 | 0.0 | 0.00 | 0.00 | 0.00 | 100 | 1009.4 |
| 20260507051118 | 64 | 257 | 0.0 | 0.0 | 0.00 | 0.00 | 0.00 | 100 | 1009.4 |
| 20260507050617 | 64 | 257 | 0.0 | 0.0 | 0.00 | 0.00 | 0.00 | 100 | 1009.4 |
| 20260507050051 | 65 | 257 | 0.0 | 0.0 | 0.00 | 0.00 | 0.00 | 100 | 1009.4 |
| 20260507045804 | 66 | 257 | 0.0 | 0.0 | 0.00 | 0.00 | 0.00 | 100 | 1009.4 |
| 20260507045032 | 66 | 257 | 0.0 | 0.0 | 0.00 | 0.00 | 0.00 | 100 | 1009.4 |
| 20260507044520 | 67 | 257 | 0.0 | 3.5 | 0.00 | 0.00 | 0.00 | 100 | 1009.4 |
| 20260507044011 | 69 | 257 | 0.0 | 3.5 | 0.00 | 0.00 | 0.00 | 100 | 1009.4 |
| 20260507043511 | 71 | 257 | 0.0 | 3.5 | 0.00 | 0.00 | 0.00 | 100 | 1009.4 |
| 20260507043236 | 72 | 278 | 2.6 | 5.2 | 0.00 | 0.00 | 0.00 | 100 | 1009.4 |
| 20260507042507 | 73 | 272 | 3.5 | 5.2 | 0.00 | 0.00 | 0.00 | 100 | 1009.4 |
| 20260507042007 | 73 | 285 | 4.3 | 5.2 | 0.00 | 0.00 | 0.00 | 100 | 1009.4 |
| 20260507041506 | 73 | 265 | 4.3 | 5.2 | 0.00 | 0.00 | 0.00 | 100 | 1009.4 |
| 20260507041006 | 73 | 248 | 4.3 | 5.2 | 0.00 | 0.00 | 0.00 | 100 | 1009.4 |
| 20260507040505 | 73 | 254 | 3.5 | 4.3 | 0.00 | 0.00 | 0.00 | 100 | 1009.4 |
| 20260507040004 | 73 | 261 | 2.6 | 4.3 | 0.00 | 0.00 | 0.00 | 100 | 1009.4 |
| 20260507035503 | 73 | 274 | 2.6 | 5.2 | 0.00 | 0.00 | 0.00 | 100 | 1009.4 |
| 20260507035002 | 74 | 265 | 3.5 | 6.1 | 0.00 | 0.00 | 0.00 | 100 | 1009.4 |
| 20260507034720 | 74 | 257 | 4.3 | 6.1 | 0.00 | 0.00 | 0.00 | 100 | 1009.4 |
| 20260507034228 | 74 | 250 | 4.3 | 7.0 | 0.00 | 0.00 | 0.00 | 100 | 1009.4 |
| 20260507033725 | 74 | 258 | 4.3 | 7.8 | 0.00 | 0.00 | 0.00 | 100 | 1009.4 |
| 20260507033000 | 75 | 261 | 5.2 | 7.8 | 0.00 | 0.00 | 0.00 | 100 | 1009.4 |
| 20260507032500 | 75 | 258 | 6.1 | 8.7 | 0.00 | 0.00 | 0.00 | 100 | 1009.4 |
| 20260507032226 | 75 | 278 | 6.1 | 8.7 | 0.00 | 0.00 | 0.00 | 100 | 1009.4 |
| 20260507031458 | 75 | 261 | 7.0 | 8.7 | 0.00 | 0.00 | 0.00 | 100 | 1009.4 |
| 20260507030958 | 75 | 289 | 7.0 | 8.7 | 0.00 | 0.00 | 0.00 | 100 | 1009.4 |
| 20260507030458 | 75 | 260 | 6.1 | 8.7 | 0.00 | 0.00 | 0.00 | 100 | 1009.4 |
| 20260507025957 | 75 | 261 | 6.1 | 7.8 | 0.00 | 0.00 | 0.00 | 100 | 1009.4 |
| 20260507025456 | 75 | 274 | 6.1 | 7.8 | 0.00 | 0.00 | 0.00 | 100 | 1009.4 |
| 20260507024956 | 76 | 265 | 5.2 | 8.7 | 0.00 | 0.00 | 0.00 | 100 | 1009.4 |
| 20260507024455 | 76 | 282 | 5.2 | 9.6 | 0.00 | 0.00 | 0.00 | 100 | 1009.4 |
| 20260507023955 | 76 | 251 | 5.2 | 9.6 | 0.00 | 0.00 | 0.00 | 100 | 1009.4 |
| 20260507023454 | 76 | 254 | 5.2 | 7.8 | 0.00 | 0.00 | 0.00 | 100 | 1009.4 |
| 20260507022953 | 75 | 271 | 4.3 | 8.7 | 0.00 | 0.00 | 0.00 | 100 | 1009.4 |
| 20260507022453 | 76 | 265 | 5.2 | 9.6 | 0.00 | 0.00 | 0.00 | 100 | 1009.4 |
| 20260507022219 | 76 | 255 | 6.1 | 9.6 | 0.00 | 0.00 | 0.00 | 100 | 1009.4 |
| 20260507021451 | 76 | 230 | 6.1 | 7.8 | 0.00 | 0.00 | 0.00 | 100 | 1009.4 |
| 20260507020950 | 76 | 260 | 6.1 | 7.8 | 0.00 | 0.00 | 0.00 | 100 | 1009.4 |
| 20260507020717 | 77 | 258 | 5.2 | 7.8 | 0.00 | 0.00 | 0.00 | 100 | 1009.4 |
| 20260507020210 | 77 | 267 | 5.2 | 7.8 | 0.00 | 0.00 | 0.00 | 100 | 1009.4 |
| 20260507015447 | 78 | 271 | 5.2 | 8.7 | 0.00 | 0.00 | 0.00 | 100 | 1009.4 |
| 20260507014947 | 78 | 285 | 5.2 | 8.7 | 0.00 | 0.00 | 0.00 | 100 | 1009.4 |
| 20260507014446 | 78 | 277 | 7.8 | 8.7 | 0.00 | 0.00 | 0.00 | 100 | 1009.4 |
| 20260507013943 | 78 | 261 | 4.3 | 8.7 | 0.00 | 0.00 | 0.00 | 100 | 1009.4 |
| 20260507012942 | 79 | 255 | 4.3 | 7.8 | 0.00 | 0.00 | 0.00 | 100 | 1009.4 |
| 20260507012707 | 79 | 246 | 4.3 | 7.0 | 0.00 | 0.00 | 0.00 | 100 | 1009.4 |
| 20260507011941 | 79 | 248 | 2.6 | 9.6 | 0.00 | 0.00 | 0.00 | 100 | 1009.4 |
| 20260507011439 | 79 | 246 | 4.3 | 9.6 | 0.00 | 0.00 | 0.00 | 100 | 1009.4 |
| 20260507010439 | 79 | 261 | 4.3 | 8.7 | 0.00 | 0.00 | 0.00 | 100 | 1009.4 |
| 20260507005938 | 79 | 225 | 2.6 | 9.6 | 0.00 | 0.00 | 0.00 | 100 | 1009.4 |
| 20260507005658 | 79 | 291 | 5.2 | 10.4 | 0.00 | 0.00 | 0.00 | 100 | 1009.4 |
| 20260507004937 | 79 | 237 | 6.1 | 10.4 | 0.00 | 0.00 | 0.00 | 100 | 1009.4 |
| 20260507004436 | 80 | 247 | 7.8 | 8.7 | 0.00 | 0.00 | 0.00 | 100 | 1009.4 |
| 20260507003936 | 80 | 236 | 4.3 | 7.8 | 0.00 | 0.00 | 0.00 | 100 | 1009.4 |
| 20260507003653 | 80 | 250 | 5.2 | 9.6 | 0.00 | 0.00 | 0.00 | 100 | 1009.4 |
| 20260507002935 | 80 | 237 | 5.2 | 12.2 | 0.00 | 0.00 | 0.00 | 100 | 1009.4 |
| 20260507002434 | 80 | 255 | 7.0 | 12.2 | 0.00 | 0.00 | 0.00 | 100 | 1009.4 |
| 20260507001933 | 80 | 261 | 9.6 | 12.2 | 0.00 | 0.00 | 0.00 | 100 | 1009.4 |
| 20260507001433 | 80 | 243 | 7.8 | 9.6 | 0.00 | 0.00 | 0.00 | 100 | 1009.4 |
| 20260507000932 | 80 | 232 | 3.5 | 9.6 | 0.00 | 0.00 | 0.00 | 100 | 1009.4 |
| 20260507000431 | 80 | 236 | 5.2 | 13.0 | 0.00 | 0.00 | 0.00 | 100 | 1009.4 |
| 20260506235931 | 80 | 232 | 5.2 | 13.0 | 0.00 | 0.00 | 0.00 | 100 | 1009.4 |
| 20260506235431 | 80 | 243 | 9.6 | 13.0 | 0.00 | 0.00 | 0.00 | 100 | 1009.4 |
| 20260506234929 | 80 | 243 | 10.4 | 13.0 | 0.00 | 0.00 | 0.00 | 100 | 1009.4 |
| 20260506234428 | 80 | 251 | 3.5 | 8.7 | 0.00 | 0.00 | 0.00 | 100 | 1009.4 |
| 20260506232927 | 80 | 241 | 8.7 | 12.2 | 0.00 | 0.00 | 0.00 | 100 | 1009.4 |
| 20260506232426 | 80 | 271 | 8.7 | 12.2 | 0.00 | 0.00 | 0.00 | 100 | 1009.4 |
| 20260506231926 | 81 | 254 | 3.5 | 10.4 | 0.00 | 0.00 | 0.00 | 100 | 1009.4 |
| 20260506231425 | 81 | 298 | 6.1 | 9.6 | 0.00 | 0.00 | 0.00 | 100 | 1009.4 |
| 20260506230925 | 80 | 195 | 0.0 | 9.6 | 0.00 | 0.00 | 0.00 | 100 | 1009.4 |
| 20260506230424 | 80 | 286 | 6.1 | 14.8 | 0.00 | 0.00 | 0.00 | 100 | 1009.4 |
| 20260506225924 | 79 | 192 | 0.9 | 14.8 | 0.00 | 0.00 | 0.00 | 100 | 1009.4 |
| 20260506225423 | 80 | 281 | 7.8 | 13.0 | 0.00 | 0.00 | 0.00 | 100 | 1009.4 |
| 20260506224922 | 81 | 232 | 8.7 | 13.0 | 0.00 | 0.00 | 0.00 | 100 | 1009.4 |
| 20260506224421 | 80 | 315 | 7.0 | 13.0 | 0.00 | 0.00 | 0.00 | 100 | 1009.4 |
| 20260506223921 | 82 | 313 | 6.1 | 12.2 | 0.00 | 0.00 | 0.00 | 100 | 1009.4 |
| 20260506223420 | 81 | 268 | 7.0 | 11.3 | 0.00 | 0.00 | 0.00 | 100 | 1009.4 |
| 20260506222920 | 79 | 32 | 0.0 | 10.4 | 0.00 | 0.00 | 0.00 | 100 | 1009.4 |
| 20260506222407 | 80 | 336 | 5.2 | 11.3 | 0.00 | 0.00 | 0.00 | 100 | 1009.4 |
| 20260506221907 | 80 | 309 | 6.1 | 11.3 | 0.00 | 0.00 | 0.00 | 100 | 1009.4 |